Location: Lango�lan
(48.1202°N, 3.2340°W)
Time: 17:36:25
(UTC+00:00)

Cosmos 1726 - Pass Details

Date: 23 October 2019
Orbit: 483 x 500 km, 82.5° (Epoch: 20 November)

Event Time Altitude Azimuth Distance (km) Brightness Sun altitude
Rises 05:31:41 0° 340° (NNW) 2,567 5.5 -12.7°
Reaches altitude 10° 05:34:00 10° 328° (NNW) 1,683 4.5 -12.3°
Maximum altitude 05:37:07 26° 270° (W) 984 3.0 -11.8°
Drops below altitude 10° 05:40:14 10° 211° (SSW) 1,677 4.5 -11.2°
Sets 05:42:32 0° 199° (SSW) 2,556 5.6 -10.9°
